Вернуться в каталог

STARLINK-36537

АктивенСвязьVLEO
NORAD 67516·PAYLOAD·🇺🇸 United States

Запущен Jan 18, 2026 с Cape Canaveral Space Force Station

Loading…

Ближайшие Пролёты (ближайшие 24 часа)

TLE

СвежийSource: CelesTrak SupGP

Эпоха: Sep 14, 2026, 20:59 UTC

1 67516C 26012Z   26257.87479167 -.00020783  00000+0 -75269-3 0  2577
2 67516  43.0037 325.8416 0001786 275.3076 199.8862 15.27591715    12

Отслеживайте STARLINK-36537 в реальном времени с AllMySat

Download on the App Store